NI4CE-14 Weather Reports


Display with metric or nautical units.
time (UTC)temp
F
wind
direction
speed
MPH
gust
MPH
rain 1hr
in
rain 24hr
in
rain mn
in
humidity
%
barometer
mb
20260508200308 89 327 4.0 11.0 0.00 0.00 0.00 100 1010.9
20260508195836 89 320 3.0 11.0 0.00 0.00 0.00 100 1011.1
20260508195808 89 358 4.0 9.0 0.00 0.00 0.00 100 1011.0
20260508195308 89 320 3.0 11.0 0.00 0.00 0.00 100 1011.1
20260508194808 89 310 5.0 10.0 0.00 0.00 0.00 100 1011.0
20260508194308 89 352 5.0 10.0 0.00 0.00 0.00 100 1011.2
20260508193808 89 331 4.0 10.0 0.00 0.00 0.00 100 1011.2
20260508193308 90 33 3.0 9.0 0.00 0.00 0.00 100 1011.2
20260508192808 90 358 3.0 9.0 0.00 0.00 0.00 100 1011.3
20260508192308 90 264 4.0 6.0 0.00 0.00 0.00 100 1011.3
20260508191808 90 316 2.0 6.0 0.00 0.00 0.00 100 1011.3
20260508191308 90 271 2.0 6.0 0.00 0.00 0.00 100 1011.3
20260508190808 90 303 3.0 5.0 0.00 0.00 0.00 100 1011.4
20260508190308 90 268 2.0 7.0 0.00 0.00 0.00 100 1011.6
20260508185808 90 291 5.0 8.0 0.00 0.00 0.00 100 1011.7
20260508185308 91 40 1.0 5.0 0.00 0.00 0.00 100 1011.7
20260508184808 91 323 0.0 6.0 0.00 0.00 0.00 100 1011.9
20260508184308 91 299 4.0 8.0 0.00 0.00 0.00 100 1011.8
20260508183808 90 9 0.0 7.0 0.00 0.00 0.00 100 1011.8
20260508183308 90 323 4.0 6.0 0.00 0.00 0.00 100 1012.0
20260508183105 89 330 4.0 5.0 0.00 0.00 0.00 100 1012.3
20260508182808 89 2 3.0 8.0 0.00 0.00 0.00 100 1012.1
20260508182308 89 274 4.0 5.0 0.00 0.00 0.00 100 1012.2
20260508181808 89 330 4.0 5.0 0.00 0.00 0.00 100 1012.3
20260508181308 88 345 4.0 7.0 0.00 0.00 0.00 100 1012.3
20260508180808 88 315 5.0 7.0 0.00 0.00 0.00 100 1012.4
20260508180308 87 327 6.0 8.0 0.00 0.00 0.00 100 1012.4
20260508175808 88 341 6.0 11.0 0.00 0.00 0.00 100 1012.5
20260508175308 88 330 8.0 10.0 0.00 0.00 0.00 100 1012.6
20260508174808 88 327 8.0 10.0 0.00 0.00 0.00 100 1012.6
20260508174308 88 300 4.0 9.0 0.00 0.00 0.00 100 1012.6
20260508173808 88 351 6.0 10.0 0.00 0.00 0.00 100 1012.7
20260508173308 88 337 7.0 9.0 0.00 0.00 0.00 100 1012.7
20260508172808 88 310 5.0 8.0 0.00 0.00 0.00 100 1012.7
20260508172308 88 331 4.0 8.0 0.00 0.00 0.00 100 1012.9
20260508171808 88 343 3.0 9.0 0.00 0.00 0.00 100 1012.9
20260508171308 87 334 6.0 9.0 0.00 0.00 0.00 100 1013.0
20260508170808 87 337 8.0 12.0 0.00 0.00 0.00 100 1013.1
20260508170308 88 329 1.0 9.0 0.00 0.00 0.00 100 1013.1
20260508165808 88 345 5.0 10.0 0.00 0.00 0.00 100 1013.2
20260508165308 87 324 6.0 9.0 0.00 0.00 0.00 100 1013.3
20260508164808 87 352 3.0 10.0 0.00 0.00 0.00 100 1013.5
20260508164308 87 315 6.0 10.0 0.00 0.00 0.00 100 1013.6
20260508163808 87 343 3.0 11.0 0.00 0.00 0.00 100 1013.7
20260508163308 88 358 3.0 8.0 0.00 0.00 0.00 100 1013.7
20260508162808 88 11 5.0 8.0 0.00 0.00 0.00 100 1013.6
20260508162406 87 2 7.0 9.0 0.00 0.00 0.00 100 1014.7
20260508162308 87 333 5.0 6.0 0.00 0.00 0.00 100 1013.7
20260508161808 87 313 0.0 10.0 0.00 0.00 0.00 100 1013.9
20260508161308 88 279 0.0 10.0 0.00 0.00 0.00 100 1014.0
20260508160808 88 338 7.0 11.0 0.00 0.00 0.00 100 1014.0
20260508160308 88 345 6.0 9.0 0.00 0.00 0.00 100 1014.2
20260508155808 88 354 5.0 7.0 0.00 0.00 0.00 100 1014.3
20260508155308 88 305 4.0 7.0 0.00 0.00 0.00 100 1014.4
20260508154808 87 15 4.0 11.0 0.00 0.00 0.00 100 1014.6
20260508154308 87 2 7.0 9.0 0.00 0.00 0.00 100 1014.7
20260508153808 87 345 3.0 9.0 0.00 0.00 0.00 100 1014.8
20260508153658 87 341 6.0 9.0 0.00 0.00 0.00 100 1014.8
20260508153308 87 341 6.0 9.0 0.00 0.00 0.00 100 1014.8
20260508153035 87 19 5.0 10.0 0.00 0.00 0.00 100 1014.7
20260508152808 87 19 5.0 10.0 0.00 0.00 0.00 100 1014.7
20260508152308 87 334 3.0 9.0 0.00 0.00 0.00 100 1014.7
20260508151808 87 347 5.0 11.0 0.00 0.00 0.00 100 1014.5
20260508151308 87 331 1.0 9.0 0.00 0.00 0.00 100 1014.4
20260508150808 86 21 4.0 10.0 0.00 0.00 0.00 100 1014.4
20260508150308 87 26 5.0 9.0 0.00 0.00 0.00 100 1014.4
20260508145808 87 7 6.0 10.0 0.00 0.00 0.00 100 1014.4
20260508145308 87 322 9.0 9.0 0.00 0.00 0.00 100 1014.3
20260508144808 87 320 6.0 10.0 0.00 0.00 0.00 100 1014.5
20260508144308 87 8 2.0 8.0 0.00 0.00 0.00 100 1014.4
20260508143808 87 345 3.0 7.0 0.00 0.00 0.00 100 1014.4
20260508143308 87 260 1.0 8.0 0.00 0.00 0.00 100 1014.5
20260508142808 86 324 7.0 9.0 0.00 0.00 0.00 100 1014.4
20260508142308 86 329 6.0 11.0 0.00 0.00 0.00 100 1014.3
20260508141808 85 348 9.0 9.0 0.00 0.00 0.00 100 1014.4
20260508141308 86 351 8.0 10.0 0.00 0.00 0.00 100 1014.5
20260508140808 85 358 5.0 10.0 0.00 0.00 0.00 100 1014.4
20260508140308 85 341 7.0 8.0 0.00 0.00 0.00 100 1014.5
20260508135808 85 2 7.0 9.0 0.00 0.00 0.00 100 1014.3
20260508135308 85 352 7.0 10.0 0.00 0.00 0.00 100 1014.3
20260508134808 85 352 3.0 9.0 0.00 0.00 0.00 100 1014.2
20260508134308 85 337 5.0 9.0 0.00 0.00 0.00 100 1014.2
20260508133808 85 295 4.0 7.0 0.00 0.00 0.00 100 1014.3
20260508133308 85 2 5.0 12.0 0.00 0.00 0.00 100 1014.3
20260508132808 85 333 6.0 11.0 0.00 0.00 0.00 100 1014.3
20260508132309 85 336 6.0 7.0 0.00 0.00 0.00 100 1014.2
20260508131808 85 358 4.0 7.0 0.00 0.00 0.00 100 1014.3
20260508131309 85 322 2.0 9.0 0.00 0.00 0.00 100 1014.3
20260508130808 85 12 3.0 9.0 0.00 0.00 0.00 100 1014.3
20260508130308 85 333 3.0 6.0 0.00 0.00 0.00 100 1014.2
20260508125808 85 15 1.0 7.0 0.00 0.00 0.00 100 1014.2
20260508125308 85 319 1.0 7.0 0.00 0.00 0.00 100 1014.2
20260508124808 84 343 5.0 7.0 0.00 0.00 0.00 100 1013.9
20260508124309 84 345 3.0 7.0 0.00 0.00 0.00 100 1014.1
20260508123809 84 305 2.0 7.0 0.00 0.00 0.00 100 1014.1
20260508123309 84 53 1.0 7.0 0.00 0.00 0.00 100 1014.1
20260508122809 84 343 2.0 9.0 0.00 0.00 0.00 100 1014.0
20260508122309 84 2 4.0 6.0 0.00 0.00 0.00 100 1014.0
20260508121809 84 285 2.0 5.0 0.00 0.00 0.00 100 1013.8
20260508121309 84 1 4.0 6.0 0.00 0.00 0.00 100 1013.7
20260508120809 84 326 0.0 6.0 0.00 0.00 0.00 100 1013.7
20260508120309 84 331 3.0 5.0 0.00 0.00 0.00 100 1013.7
20260508115809 84 284 0.0 4.0 0.00 0.00 0.00 100 1013.6
20260508115309 84 19 0.0 6.0 0.00 0.00 0.00 100 1013.5
20260508114809 84 357 0.0 3.0 0.00 0.00 0.00 100 1013.4
20260508114309 84 40 0.0 1.0 0.00 0.00 0.00 100 1013.2
20260508113809 84 299 0.0 4.0 0.00 0.00 0.00 100 1013.1
20260508113309 83 340 2.0 3.0 0.00 0.00 0.00 100 1013.1
20260508112809 83 317 0.0 3.0 0.00 0.00 0.00 100 1013.0
20260508112309 83 284 0.0 4.0 0.00 0.00 0.00 100 1012.9
20260508111809 83 267 0.0 0.0 0.00 0.00 0.00 100 1012.8
20260508111309 83 267 0.0 1.0 0.00 0.00 0.00 100 1012.8
20260508110809 83 267 0.0 5.0 0.00 0.00 0.00 100 1012.7
20260508110309 83 264 3.0 3.0 0.00 0.00 0.00 100 1012.7
20260508105809 83 347 0.0 4.0 0.00 0.00 0.00 100 1012.6
20260508105309 83 358 0.0 0.0 0.00 0.00 0.00 100 1012.6
20260508104809 83 348 0.0 0.0 0.00 0.00 0.00 100 1012.6
20260508104309 83 331 0.0 1.0 0.00 0.00 0.00 100 1012.4
20260508103809 83 313 0.0 0.0 0.00 0.00 0.00 100 1012.4
20260508103309 83 347 0.0 2.0 0.00 0.00 0.00 100 1012.4
20260508102809 83 288 2.0 5.0 0.00 0.00 0.00 100 1012.4
20260508102309 83 350 0.0 5.0 0.00 0.00 0.00 100 1012.4
20260508101809 83 324 0.0 4.0 0.00 0.00 0.00 100 1012.3
20260508101309 83 18 0.0 2.0 0.00 0.00 0.00 100 1012.2
20260508100809 83 7 0.0 4.0 0.00 0.00 0.00 100 1012.1
20260508100309 83 337 0.0 1.0 0.00 0.00 0.00 100 1012.1
20260508095809 83 334 0.0 5.0 0.00 0.00 0.00 100 1012.2
20260508095309 83 296 0.0 4.0 0.00 0.00 0.00 100 1012.2
20260508094809 83 355 0.0 4.0 0.00 0.00 0.00 100 1012.1
20260508094309 83 303 0.0 0.0 0.00 0.00 0.00 100 1012.1
20260508093809 83 303 0.0 3.0 0.00 0.00 0.00 100 1012.0
20260508093309 83 324 0.0 1.0 0.00 0.00 0.00 100 1011.9
20260508092809 83 348 0.0 0.0 0.00 0.00 0.00 100 1011.9
20260508092313 83 348 0.0 2.0 0.00 0.00 0.00 100 1011.8
20260508091809 83 327 0.0 0.0 0.00 0.00 0.00 100 1011.7
20260508091309 83 327 0.0 4.0 0.00 0.00 0.00 100 1011.7
20260508090809 83 338 0.0 3.0 0.00 0.00 0.00 100 1011.8
20260508090309 83 341 0.0 0.0 0.00 0.00 0.00 100 1011.7
20260508085809 83 341 0.0 3.0 0.00 0.00 0.00 100 1011.7
20260508085309 83 340 1.0 5.0 0.00 0.00 0.00 100 1011.7
20260508084809 83 345 0.0 0.0 0.00 0.00 0.00 100 1011.6
20260508084309 83 345 0.0 8.0 0.00 0.00 0.00 100 1011.6
20260508083809 83 351 1.0 4.0 0.00 0.00 0.00 100 1011.5
20260508083309 83 355 0.0 4.0 0.00 0.00 0.00 100 1011.5
20260508082809 83 320 3.0 3.0 0.00 0.00 0.00 100 1011.6
20260508082309 83 341 0.0 2.0 0.00 0.00 0.00 100 1011.6
20260508081809 83 341 1.0 5.0 0.00 0.00 0.00 100 1011.6
20260508081309 83 4 4.0 4.0 0.00 0.00 0.00 100 1011.6
20260508080809 83 300 0.0 0.0 0.00 0.00 0.00 100 1011.6
20260508080309 83 300 0.0 2.0 0.00 0.00 0.00 100 1011.6
20260508075809 83 320 0.0 3.0 0.00 0.00 0.00 100 1011.6
20260508075309 83 281 1.0 5.0 0.00 0.00 0.00 100 1011.7
20260508074809 83 305 0.0 2.0 0.00 0.00 0.00 100 1011.7
20260508074309 83 15 0.0 1.0 0.00 0.00 0.00 100 1011.8
20260508073809 83 347 0.0 4.0 0.00 0.00 0.00 100 1011.9
20260508073309 83 296 0.0 2.0 0.00 0.00 0.00 100 1011.8
20260508072809 83 15 0.0 0.0 0.00 0.00 0.00 100 1011.8
20260508072309 83 15 0.0 0.0 0.00 0.00 0.00 100 1011.9
20260508071809 83 15 0.0 0.0 0.00 0.00 0.00 100 1011.9
20260508071309 83 15 0.0 3.0 0.00 0.00 0.00 100 1011.9
20260508070809 83 334 0.0 0.0 0.00 0.00 0.00 100 1012.0
20260508070309 83 334 0.0 3.0 0.00 0.00 0.00 100 1012.0
20260508065809 83 306 0.0 3.0 0.00 0.00 0.00 100 1012.1
20260508065309 83 298 0.0 0.0 0.00 0.00 0.00 100 1012.2
20260508064809 83 298 0.0 5.0 0.00 0.00 0.00 100 1012.2
20260508064309 83 296 3.0 3.0 0.00 0.00 0.00 100 1012.2
20260508063809 83 358 0.0 6.0 0.00 0.00 0.00 100 1012.3
20260508063309 83 4 0.0 3.0 0.00 0.00 0.00 100 1012.3
20260508062809 83 33 0.0 7.0 0.00 0.00 0.00 100 1012.3
20260508062309 83 330 0.0 5.0 0.00 0.00 0.00 100 1012.4
20260508061809 83 12 0.0 1.0 0.00 0.00 0.00 100 1012.4
20260508061309 83 317 0.0 0.0 0.00 0.00 0.00 100 1012.4
20260508060809 83 317 0.0 1.0 0.00 0.00 0.00 100 1012.4
20260508060309 83 243 0.0 1.0 0.00 0.00 0.00 100 1012.4
20260508055809 83 337 0.0 6.0 0.00 0.00 0.00 100 1012.5
20260508055309 83 299 2.0 4.0 0.00 0.00 0.00 100 1012.6
20260508054809 83 312 0.0 0.0 0.00 0.00 0.00 100 1012.7
20260508054309 83 312 0.0 1.0 0.00 0.00 0.00 100 1012.8
20260508053809 83 284 0.0 2.0 0.00 0.00 0.00 100 1012.9
20260508053309 83 343 0.0 0.0 0.00 0.00 0.00 100 1012.9
20260508052809 82 343 0.0 1.0 0.00 0.00 0.00 100 1012.9
20260508052309 82 343 0.0 0.0 0.00 0.00 0.00 100 1012.9
20260508051809 82 11 0.0 6.0 0.00 0.00 0.00 100 1012.9
20260508051309 82 157 0.0 0.0 0.00 0.00 0.00 100 1012.9
20260508050809 82 157 0.0 0.0 0.00 0.00 0.00 100 1013.0
20260508050309 82 157 0.0 0.0 0.00 0.00 0.00 100 1013.0
20260508045809 82 157 0.0 0.0 0.00 0.00 0.00 100 1013.0
20260508045309 82 157 0.0 0.0 0.00 0.00 0.00 100 1012.8
20260508044809 82 157 0.0 0.0 0.00 0.00 0.00 100 1013.0
20260508044309 82 157 0.0 3.0 0.00 0.00 0.00 100 1013.1
20260508043809 82 196 2.0 2.0 0.00 0.00 0.00 100 1013.1
20260508043309 82 50 0.0 0.0 0.00 0.00 0.00 100 1013.1
20260508042809 82 50 0.0 0.0 0.00 0.00 0.00 100 1013.1
20260508042309 82 50 0.0 0.0 0.00 0.00 0.00 100 1013.0
20260508041809 82 50 0.0 0.0 0.00 0.00 0.00 100 1013.1
20260508041309 82 50 0.0 0.0 0.00 0.00 0.00 100 1013.0
20260508040809 82 50 0.0 0.0 0.00 0.00 0.00 100 1013.1
20260508040309 82 50 0.0 0.0 0.00 0.00 0.00 100 1013.2
20260508035809 82 50 0.0 0.0 0.00 0.00 0.00 100 1013.1
20260508035309 82 50 0.0 0.0 0.00 0.00 0.00 100 1013.1
20260508034850 82 50 0.0 0.0 0.00 0.00 0.00 100 1013.2
20260508034809 82 50 0.0 0.0 0.00 0.00 0.00 100 1013.2
20260508034309 82 50 0.0 0.0 0.00 0.00 0.00 100 1013.4
20260508033809 82 50 0.0 0.0 0.00 0.00 0.00 100 1013.3
20260508033309 82 50 0.0 0.0 0.00 0.00 0.00 100 1013.3
20260508032809 82 50 0.0 0.0 0.00 0.00 0.00 100 1013.3
20260508032309 82 50 0.0 0.0 0.00 0.00 0.00 100 1013.2
20260508031809 82 50 0.0 0.0 0.00 0.00 0.00 100 1013.1
20260508031309 82 50 0.0 0.0 0.00 0.00 0.00 100 1013.0
20260508030810 82 50 0.0 0.0 0.00 0.00 0.00 100 1013.0
20260508030309 82 50 0.0 0.0 0.00 0.00 0.00 100 1013.0
20260508025809 82 50 0.0 0.0 0.00 0.00 0.00 100 1013.0
20260508025309 82 50 0.0 0.0 0.00 0.00 0.00 100 1012.8
20260508024809 82 50 0.0 0.0 0.00 0.00 0.00 100 1012.8
20260508024309 83 50 0.0 0.0 0.00 0.00 0.00 100 1012.8
20260508023809 83 50 0.0 0.0 0.00 0.00 0.00 100 1012.8
20260508023310 83 50 0.0 0.0 0.00 0.00 0.00 100 1012.9
20260508022809 83 50 0.0 0.0 0.00 0.00 0.00 100 1012.8
20260508022309 83 50 0.0 0.0 0.00 0.00 0.00 100 1012.9
20260508021809 83 50 0.0 0.0 0.00 0.00 0.00 100 1012.9
20260508021309 83 50 0.0 0.0 0.00 0.00 0.00 100 1012.8
20260508020809 83 50 0.0 0.0 0.00 0.00 0.00 100 1012.7
20260508020309 83 50 0.0 0.0 0.00 0.00 0.00 100 1012.8
20260508015809 83 50 0.0 0.0 0.00 0.00 0.00 100 1012.2
20260508015309 83 50 0.0 0.0 0.00 0.00 0.00 100 1010.5
20260508014809 83 50 0.0 0.0 0.00 0.00 0.00 100 1010.9
20260508014309 83 50 0.0 0.0 0.00 0.00 0.00 100 1010.5
20260508013809 83 50 0.0 0.0 0.00 0.00 0.00 100 1010.9
20260508013310 83 50 0.0 0.0 0.00 0.00 0.00 100 1010.7
20260508012810 83 50 0.0 0.0 0.00 0.00 0.00 100 1010.5
20260508012310 83 50 0.0 0.0 0.00 0.00 0.00 100 1010.6
20260508011810 83 50 0.0 0.0 0.00 0.00 0.00 100 1010.7
20260508011310 83 50 0.0 0.0 0.00 0.00 0.00 100 1011.0
20260508010810 83 50 0.0 0.0 0.00 0.00 0.00 100 1010.5
20260508010310 83 50 0.0 1.0 0.00 0.00 0.00 100 1011.0
20260508005810 83 50 0.0 0.0 0.00 0.00 0.00 100 1011.0
20260508005310 83 50 0.0 0.0 0.00 0.00 0.00 100 1010.8
20260508004810 83 50 0.0 2.0 0.00 0.00 0.00 100 1010.6
20260508004310 84 319 0.0 0.0 0.00 0.00 0.00 100 1010.8
20260508003810 84 319 0.0 3.0 0.00 0.00 0.00 100 1010.5
20260508003310 84 323 2.0 4.0 0.00 0.00 0.00 100 1010.8
20260508002810 84 291 0.0 0.0 0.00 0.00 0.00 100 1012.6
20260508002310 84 291 0.0 3.0 0.00 0.00 0.00 100 1010.8
20260508001810 84 271 0.0 1.0 0.00 0.00 0.00 100 1012.6
20260508001310 84 296 0.0 2.0 0.00 0.00 0.00 100 1012.6
20260508000810 84 261 0.0 0.0 0.00 0.00 0.00 100 1012.5
20260508000312 84 5 0.0 0.0 0.00 0.00 0.00 100 1012.6
20260507235810 85 5 0.0 4.0 0.00 0.00 0.00 100 1012.4
20260507235310 85 330 0.0 3.0 0.00 0.00 0.00 100 1012.6
20260507234810 85 40 1.0 4.0 0.00 0.00 0.00 100 1012.6
20260507234310 85 281 3.0 4.0 0.00 0.00 0.00 100 1012.5
20260507233810 85 300 0.0 3.0 0.00 0.00 0.00 100 1012.6
20260507233310 86 278 0.0 4.0 0.00 0.00 0.00 100 1012.6
20260507232810 86 227 0.0 0.0 0.00 0.00 0.00 100 1012.5
20260507232310 86 227 0.0 3.0 0.00 0.00 0.00 100 1012.5
20260507231810 86 319 1.0 4.0 0.00 0.00 0.00 100 1012.5
20260507231310 86 250 0.0 0.0 0.00 0.00 0.00 100 1012.4
20260507230810 87 250 0.0 4.0 0.00 0.00 0.00 100 1012.5
20260507230310 86 14 3.0 3.0 0.00 0.00 0.00 100 1012.6
20260507225810 86 347 0.0 3.0 0.00 0.00 0.00 100 1012.7
20260507225310 86 268 3.0 6.0 0.00 0.00 0.00 100 1012.6
20260507224810 87 327 1.0 6.0 0.00 0.00 0.00 100 1012.5
20260507224310 87 237 1.0 5.0 0.00 0.00 0.00 100 1012.6
20260507223810 87 316 1.0 5.0 0.00 0.00 0.00 100 1012.5
20260507223310 87 225 0.0 4.0 0.00 0.00 0.00 100 1012.4
20260507222810 87 316 2.0 5.0 0.00 0.00 0.00 100 1012.5
20260507222310 88 330 3.0 6.0 0.00 0.00 0.00 100 1012.4
20260507221810 88 312 5.0 5.0 0.00 0.00 0.00 100 1012.4
20260507221310 88 195 0.0 7.0 0.00 0.00 0.00 100 1012.3
20260507220810 88 288 0.0 5.0 0.00 0.00 0.00 100 1012.3
20260507220310 88 288 3.0 6.0 0.00 0.00 0.00 100 1012.4
20260507215810 87 327 3.0 6.0 0.00 0.00 0.00 100 1012.4
20260507215310 88 74 2.0 10.0 0.00 0.00 0.00 100 1012.4
20260507214810 88 198 0.0 6.0 0.00 0.00 0.00 100 1012.5
20260507214310 88 56 0.0 5.0 0.00 0.00 0.00 100 1012.4
20260507213810 87 222 1.0 5.0 0.00 0.00 0.00 100 1012.4
20260507213310 87 347 4.0 7.0 0.00 0.00 0.00 100 1012.5
20260507212810 87 229 1.0 8.0 0.00 0.00 0.00 100 1012.5
20260507212310 87 15 3.0 9.0 0.00 0.00 0.00 100 1012.4
20260507211810 88 223 3.0 7.0 0.00 0.00 0.00 100 1012.5
20260507211310 88 281 0.0 7.0 0.00 0.00 0.00 100 1012.6
20260507210810 88 215 0.0 8.0 0.00 0.00 0.00 100 1012.6
20260507210310 88 282 5.0 6.0 0.00 0.00 0.00 100 1012.7
20260507205810 88 272 3.0 8.0 0.00 0.00 0.00 100 1012.6
20260507205310 88 26 3.0 7.0 0.00 0.00 0.00 100 1012.7
20260507204810 88 331 5.0 7.0 0.00 0.00 0.00 100 1012.7
20260507204310 89 18 0.0 6.0 0.00 0.00 0.00 100 1012.7
20260507203810 89 329 0.0 6.0 0.00 0.00 0.00 100 1012.6
20260507203310 89 236 2.0 4.0 0.00 0.00 0.00 100 1012.7
20260507202810 89 320 1.0 4.0 0.00 0.00 0.00 100 1012.8
20260507202310 89 18 0.0 6.0 0.00 0.00 0.00 100 1012.8
20260507201810 89 222 3.0 7.0 0.00 0.00 0.00 100 1012.9
20260507201310 89 220 0.0 5.0 0.00 0.00 0.00 100 1012.9
20260507200810 89 334 1.0 8.0 0.00 0.00 0.00 100 1012.9